TimeCDT,TemperatureF,Dew PointF,Humidity,Sea Level PressureIn,VisibilityMPH,Wind Direction,Wind SpeedMPH,Gust SpeedMPH,PrecipitationIn,Events,Conditions,WindDirDegrees,DateUTC
12:15 AM,64.8,57.4,77,29.78,10.0,SE,19.6,24.2,N/A,Rain,Light Rain,140,2013-04-08 05:15:00
12:35 AM,64.4,57.6,78,29.77,10.0,SE,13.8,20.7,N/A,,Scattered Clouds,140,2013-04-08 05:35:00
12:55 AM,64.8,57.7,78,29.78,10.0,SSE,11.5,-,N/A,,Mostly Cloudy,150,2013-04-08 05:55:00
1:15 AM,64.6,57.9,79,29.76,10.0,SSE,11.5,-,N/A,Rain,Light Rain,160,2013-04-08 06:15:00
1:35 AM,64.4,57.7,79,29.75,10.0,SSE,12.7,-,N/A,,Scattered Clouds,150,2013-04-08 06:35:00
1:55 AM,64.0,57.6,79,29.76,10.0,SSE,15.0,19.6,N/A,,Mostly Cloudy,160,2013-04-08 06:55:00
2:15 AM,63.9,57.4,79,29.74,10.0,SSE,15.0,19.6,N/A,Thunderstorm,Mostly Cloudy,160,2013-04-08 07:15:00
2:35 AM,63.9,57.4,79,29.74,10.0,South,11.5,19.6,N/A,,Mostly Cloudy,180,2013-04-08 07:35:00
2:55 AM,63.5,57.2,80,29.73,10.0,South,11.5,17.3,N/A,,Mostly Cloudy,180,2013-04-08 07:55:00
3:15 AM,63.3,57.2,80,29.71,10.0,South,9.2,-,N/A,,Mostly Cloudy,180,2013-04-08 08:15:00
3:35 AM,63.5,56.8,79,29.71,10.0,South,16.1,19.6,N/A,,Overcast,180,2013-04-08 08:35:00
3:55 AM,63.5,56.5,78,29.71,10.0,South,16.1,23.0,N/A,,Mostly Cloudy,180,2013-04-08 08:55:00
4:15 AM,63.5,56.3,77,29.72,10.0,South,15.0,26.5,N/A,Rain-Thunderstorm,Light Thunderstorms and Rain,190,2013-04-08 09:15:00
4:35 AM,61.7,57.0,85,29.72,7.0,South,23.0,32.2,0.05,Rain-Thunderstorm,Rain,190,2013-04-08 09:35:00
4:55 AM,61.7,56.7,84,29.68,10.0,South,16.1,24.2,0.06,Rain-Thunderstorm,Light Thunderstorms and Rain,170,2013-04-08 09:55:00
5:15 AM,59.9,53.8,80,29.70,10.0,South,18.4,24.2,N/A,Thunderstorm,Scattered Clouds,190,2013-04-08 10:15:00
5:35 AM,58.5,51.8,79,29.70,10.0,South,13.8,-,N/A,,Scattered Clouds,190,2013-04-08 10:35:00
5:55 AM,58.5,52.7,81,29.70,10.0,South,13.8,-,N/A,,Scattered Clouds,190,2013-04-08 10:55:00
6:15 AM,59.9,53.8,80,29.70,10.0,South,15.0,-,N/A,,Mostly Cloudy,190,2013-04-08 11:15:00
6:35 AM,59.9,54.0,81,29.71,10.0,South,12.7,20.7,N/A,,Mostly Cloudy,180,2013-04-08 11:35:00
6:55 AM,59.4,53.6,81,29.73,10.0,South,13.8,-,N/A,,Scattered Clouds,180,2013-04-08 11:55:00
7:15 AM,60.1,54.5,82,29.74,10.0,South,11.5,-,N/A,,Scattered Clouds,190,2013-04-08 12:15:00
7:35 AM,61.0,55.2,81,29.75,10.0,South,15.0,18.4,N/A,,Scattered Clouds,190,2013-04-08 12:35:00
7:55 AM,62.6,55.6,78,29.75,10.0,SSW,15.0,21.9,N/A,,Scattered Clouds,200,2013-04-08 12:55:00
8:15 AM,62.8,56.1,79,29.75,10.0,SSW,13.8,-,N/A,,Mostly Cloudy,200,2013-04-08 13:15:00
8:35 AM,63.7,56.7,78,29.75,10.0,SSW,15.0,20.7,N/A,,Scattered Clouds,200,2013-04-08 13:35:00
8:55 AM,64.0,57.0,78,29.76,10.0,SSW,12.7,18.4,N/A,,Scattered Clouds,210,2013-04-08 13:55:00
9:15 AM,65.1,57.7,77,29.77,10.0,SSW,12.7,-,N/A,,Clear,210,2013-04-08 14:15:00
9:35 AM,66.9,58.3,74,29.78,10.0,SW,15.0,20.7,N/A,,Clear,230,2013-04-08 14:35:00
9:55 AM,68.0,58.6,72,29.79,10.0,West,9.2,-,N/A,,Scattered Clouds,260,2013-04-08 14:55:00
10:15 AM,68.5,59.0,72,29.80,10.0,West,13.8,17.3,N/A,,Mostly Cloudy,270,2013-04-08 15:15:00
10:35 AM,67.5,58.6,73,29.80,10.0,WNW,10.4,-,N/A,,Mostly Cloudy,290,2013-04-08 15:35:00
10:55 AM,67.3,59.0,75,29.81,10.0,NW,6.9,-,N/A,,Scattered Clouds,310,2013-04-08 15:55:00
11:15 AM,68.0,58.6,72,29.82,10.0,WSW,4.6,-,N/A,,Scattered Clouds,250,2013-04-08 16:15:00
11:35 AM,68.7,59.0,71,29.82,10.0,SW,3.5,-,N/A,,Mostly Cloudy,230,2013-04-08 16:35:00
11:55 AM,69.6,59.4,70,29.82,10.0,WSW,5.8,-,N/A,,Mostly Cloudy,240,2013-04-08 16:55:00
12:15 PM,70.5,59.9,69,29.82,10.0,SW,9.2,-,N/A,,Mostly Cloudy,220,2013-04-08 17:15:00
12:35 PM,72.1,59.4,64,29.81,10.0,WSW,9.2,-,N/A,,Scattered Clouds,250,2013-04-08 17:35:00
12:55 PM,73.8,59.7,61,29.81,10.0,SSW,12.7,-,N/A,,Scattered Clouds,210,2013-04-08 17:55:00
1:15 PM,74.3,59.4,60,29.80,10.0,SW,9.2,-,N/A,,Scattered Clouds,220,2013-04-08 18:15:00
1:35 PM,75.0,59.5,58,29.80,10.0,SW,11.5,-,N/A,,Scattered Clouds,230,2013-04-08 18:35:00
1:55 PM,75.6,59.5,57,29.80,10.0,WSW,8.1,-,N/A,,Scattered Clouds,240,2013-04-08 18:55:00
2:15 PM,76.1,59.4,56,29.80,10.0,West,8.1,-,N/A,,Scattered Clouds,270,2013-04-08 19:15:00
2:35 PM,75.9,58.8,55,29.80,10.0,WSW,8.1,-,N/A,,Scattered Clouds,240,2013-04-08 19:35:00
2:55 PM,75.4,58.8,56,29.80,10.0,South,5.8,-,N/A,,Mostly Cloudy,180,2013-04-08 19:55:00
3:15 PM,77.2,59.0,53,29.80,10.0,SW,6.9,-,N/A,,Scattered Clouds,230,2013-04-08 20:15:00
3:35 PM,76.5,59.0,55,29.80,10.0,SW,9.2,-,N/A,,Scattered Clouds,220,2013-04-08 20:35:00
3:55 PM,76.3,58.6,54,29.80,10.0,SW,8.1,-,N/A,,Scattered Clouds,230,2013-04-08 20:55:00
4:15 PM,76.8,58.6,53,29.80,10.0,SSW,8.1,-,N/A,,Scattered Clouds,210,2013-04-08 21:15:00
4:35 PM,75.4,58.5,56,29.80,10.0,SSW,4.6,-,N/A,,Clear,210,2013-04-08 21:35:00
4:55 PM,75.6,58.6,56,29.81,10.0,SW,5.8,-,N/A,,Clear,230,2013-04-08 21:55:00
5:15 PM,75.4,59.0,57,29.81,10.0,South,3.5,-,N/A,,Clear,170,2013-04-08 22:15:00
5:35 PM,75.9,59.2,56,29.81,10.0,SSE,3.5,-,N/A,,Clear,160,2013-04-08 22:35:00
5:55 PM,74.5,59.4,59,29.82,10.0,SE,3.5,-,N/A,,Scattered Clouds,140,2013-04-08 22:55:00
6:15 PM,74.5,60.3,61,29.82,10.0,SE,4.6,-,N/A,,Scattered Clouds,130,2013-04-08 23:15:00
6:35 PM,73.6,60.1,63,29.81,10.0,SE,9.2,-,N/A,,Clear,130,2013-04-08 23:35:00
6:55 PM,73.0,60.1,64,29.80,10.0,ESE,10.4,-,N/A,,Clear,120,2013-04-08 23:55:00
7:15 PM,72.7,60.3,65,29.81,10.0,SE,10.4,-,N/A,,Clear,140,2013-04-09 00:15:00
7:35 PM,72.0,59.4,64,29.82,10.0,SE,8.1,-,N/A,,Clear,140,2013-04-09 00:35:00
7:55 PM,70.9,59.2,66,29.83,10.0,SE,8.1,-,N/A,,Clear,140,2013-04-09 00:55:00
8:15 PM,69.8,59.0,68,29.84,10.0,SE,6.9,-,N/A,,Clear,130,2013-04-09 01:15:00
8:35 PM,68.0,59.0,73,29.84,10.0,SE,9.2,-,N/A,,Clear,130,2013-04-09 01:35:00
8:55 PM,68.5,58.8,71,29.85,10.0,SE,6.9,-,N/A,,Clear,130,2013-04-09 01:55:00
9:15 PM,66.4,58.5,76,29.85,10.0,SE,6.9,-,N/A,,Clear,130,2013-04-09 02:15:00
9:35 PM,66.9,58.6,75,29.86,10.0,SE,8.1,-,N/A,,Clear,130,2013-04-09 02:35:00
9:55 PM,67.5,58.6,73,29.86,10.0,SE,9.2,-,N/A,,Clear,130,2013-04-09 02:55:00
10:15 PM,67.1,58.6,74,29.86,10.0,SE,9.2,-,N/A,,Clear,140,2013-04-09 03:15:00
10:35 PM,68.0,58.5,71,29.86,10.0,SE,10.4,-,N/A,,Clear,140,2013-04-09 03:35:00
10:55 PM,68.2,58.3,71,29.86,10.0,SSE,10.4,-,N/A,,Clear,150,2013-04-09 03:55:00
11:15 PM,68.9,58.1,68,29.86,10.0,SSE,13.8,18.4,N/A,,Clear,160,2013-04-09 04:15:00
11:35 PM,68.9,57.9,68,29.86,10.0,SSE,10.4,-,N/A,,Clear,160,2013-04-09 04:35:00
11:55 PM,68.4,58.1,70,29.86,10.0,SSE,12.7,-,N/A,,Scattered Clouds,160,2013-04-09 04:55:00